GFSNGP_850_spd_126.txt.gz
Wind_Speed
3 4 4 5 11 13 8 12 6 6 7 7 12 9 9 7 4 2 5 9 13 16 18 19 21 23 25 27 27 28 30 32 35 37 39 39 38 36 40 37 38 39 38 34
4 7 8 12 17 15 16 11 6 4 6 5 16 17 13 9 7 4 4 7 10 14 17 19 20 22 25 27 28 28 30 32 33 37 39 42 44 44 44 44 43 43 46 47
4 4 7 8 10 11 4 7 7 9 6 14 11 14 14 12 9 6 3 6 9 13 16 17 19 21 25 28 29 30 32 33 32 34 35 39 39 41 43 45 44 46 46 46
3 3 4 6 3 4 6 2 4 5 14 15 14 14 14 11 11 7 5 7 10 12 14 15 16 19 23 26 30 32 33 34 33 34 36 38 38 39 39 39 40 42 44 44
2 3 6 3 3 4 4 4 8 12 13 18 20 16 7 10 9 9 9 9 10 11 13 14 15 17 19 24 28 31 34 34 34 32 34 36 38 38 38 39 40 41 41 42
3 3 4 4 2 6 2 5 13 18 19 22 21 5 4 14 12 12 10 10 10 10 12 13 14 15 18 21 24 29 32 32 33 33 33 35 35 36 36 37 39 38 39 40
6 4 6 3 7 7 4 4 19 27 27 27 7 2 23 20 17 13 12 11 10 10 12 13 13 13 17 21 24 22 24 27 30 32 34 35 34 34 34 36 36 37 38 38
4 4 10 6 6 6 3 10 23 22 28 25 12 20 27 22 20 16 14 13 10 10 11 11 10 11 18 21 17 18 21 24 27 29 31 33 34 35 35 36 37 38 38 37
7 5 1 3 3 5 7 19 21 24 27 31 23 29 27 25 20 16 14 12 9 8 10 11 10 10 14 17 15 16 19 23 25 26 29 30 33 34 37 37 38 39 39 39
2 4 4 6 6 6 8 19 25 25 28 30 27 29 28 24 21 18 15 11 9 8 8 10 9 11 12 11 12 14 17 20 22 25 26 29 32 35 35 37 37 38 37 38
2 2 3 10 11 12 12 14 18 27 29 30 28 30 28 25 21 18 16 13 9 8 9 10 9 10 11 10 11 14 18 19 22 23 25 26 27 29 31 31 32 31 31 29
5 12 6 6 19 16 15 17 19 27 29 27 28 31 28 23 22 21 18 14 11 9 8 9 9 10 11 11 11 13 16 16 17 18 21 22 22 21 20 22 26 28 25 25
3 8 14 6 19 19 18 19 20 24 27 31 29 28 26 27 23 20 17 12 10 10 9 9 8 8 9 12 11 12 15 17 17 17 19 20 21 22 23 23 26 28 28 24
8 18 10 20 14 20 19 17 18 21 26 28 29 27 28 26 24 20 16 12 11 10 10 9 7 7 8 9 11 11 14 16 17 17 16 17 19 19 20 23 25 27 27 28
16 5 5 17 16 22 20 21 21 24 27 28 30 28 27 27 23 19 15 14 12 11 9 8 7 6 7 7 8 9 10 12 13 15 16 14 16 18 18 21 22 24 24 25
11 5 9 20 25 26 25 25 26 26 31 31 27 27 26 21 19 17 15 13 11 11 10 8 6 5 5 5 6 6 8 9 11 13 13 15 14 16 17 18 19 20 22 24
15 14 15 21 24 27 28 28 25 29 31 27 29 27 24 21 18 17 17 14 12 10 9 8 5 3 3 3 5 6 6 6 8 10 12 13 12 14 15 15 16 17 18 19
15 11 12 20 27 28 28 25 24 29 28 28 27 23 22 20 19 19 18 15 13 11 9 7 5 4 2 2 4 5 6 6 7 9 10 10 12 12 13 14 15 15 15 15
11 12 15 19 25 27 27 25 25 27 26 24 22 21 19 18 18 18 17 15 12 10 9 7 6 6 2 3 3 6 8 8 9 10 10 11 12 13 14 15 14 13 14 16
13 12 16 17 20 24 26 26 26 27 26 23 21 20 21 21 20 19 17 13 11 8 6 7 6 5 2 7 6 8 9 10 11 12 12 13 14 15 16 14 14 15 16 15
14 17 18 17 21 23 24 23 23 23 21 19 20 19 20 20 20 18 17 15 11 9 8 7 5 2 3 7 7 9 11 12 13 14 15 15 16 16 16 16 17 17 17 17
12 17 16 19 21 21 21 21 21 20 19 19 18 18 20 20 20 17 13 11 8 8 8 5 4 4 7 9 10 11 13 14 15 15 16 16 16 17 18 19 18 18 19 19
11 13 14 17 19 19 20 20 19 16 18 18 19 20 19 19 19 19 14 14 10 7 6 5 5 7 9 11 12 13 14 15 16 16 15 15 16 17 18 18 19 20 21 22
12 12 13 14 15 17 19 19 17 17 16 16 16 16 18 20 19 15 11 10 9 7 6 8 8 8 10 12 13 14 14 14 14 14 14 15 16 16 16 17 18 19 20 22
11 12 13 14 15 16 16 18 18 19 18 19 19 19 19 18 14 12 10 9 8 8 9 9 9 9 11 12 13 12 11 12 12 13 14 15 15 16 17 18 19 20 20 22
11 12 12 12 13 14 16 18 20 21 22 22 21 20 20 17 13 10 11 10 9 9 10 8 10 11 12 14 12 11 11 12 12 13 13 14 15 16 17 18 18 19 21 22
11 11 13 14 14 14 16 17 20 22 21 21 22 20 17 15 13 14 12 10 9 8 8 9 10 12 14 14 13 12 12 12 13 13 13 14 15 16 17 18 19 20 21 23

GFSNGP_850_spd_129.txt.gz
Wind_Speed
2 4 3 4 5 12 9 11 8 15 11 5 15 15 18 13 7 4 1 3 7 10 12 16 18 19 20 22 24 24 26 27 30 32 33 35 38 38 40 42 43 43 40 39
4 6 7 10 14 15 14 15 12 8 23 6 8 21 17 13 11 7 3 2 5 8 11 15 17 19 21 22 24 25 28 29 28 29 31 34 36 38 40 43 44 44 45 44
5 2 5 6 11 11 5 6 7 10 10 8 5 13 16 16 13 10 5 4 4 7 10 12 15 18 20 22 23 24 26 27 29 31 33 34 35 35 36 38 39 42 43 44
2 2 3 7 3 4 6 8 8 2 3 7 13 15 14 13 14 11 8 7 7 8 9 10 11 14 17 20 22 24 25 26 27 28 30 31 33 35 37 38 39 40 41 39
2 3 7 10 4 4 5 6 6 8 11 16 21 16 6 12 13 11 10 10 10 9 10 9 10 11 13 17 20 22 24 26 26 26 28 29 32 33 34 34 36 37 37 38
3 3 4 4 2 4 3 5 8 13 15 20 18 5 3 19 16 14 12 11 10 9 9 8 10 10 11 15 18 22 23 24 24 25 25 28 28 30 31 32 34 34 34 36
4 4 7 5 6 7 4 5 15 21 24 25 7 4 19 23 18 15 13 12 11 9 8 9 8 6 11 15 18 17 17 20 22 24 26 27 27 28 29 30 30 32 34 34
5 6 11 9 6 6 4 4 20 21 25 25 12 13 30 25 22 20 17 15 12 10 8 8 7 6 10 15 15 13 14 17 20 23 24 25 27 28 29 29 31 33 32 33
9 6 3 14 3 6 5 10 16 22 25 29 22 28 29 28 24 21 18 15 12 9 8 8 6 6 10 13 10 11 12 17 19 21 22 25 28 30 31 32 34 33 34 33
2 4 6 12 10 9 9 11 17 22 25 30 27 31 30 28 25 23 19 16 12 9 8 8 7 6 9 10 9 9 12 14 17 19 21 24 27 28 29 31 31 31 30 32
5 4 5 15 18 15 12 12 19 21 22 30 27 31 31 30 26 22 19 16 13 10 10 9 8 6 8 8 7 8 10 14 16 18 19 20 22 25 27 27 25 26 26 26
6 7 5 4 11 18 15 15 20 24 26 29 27 29 31 29 26 23 20 17 14 12 10 10 9 7 7 7 6 8 10 12 14 15 17 18 19 20 22 22 22 21 21 23
3 5 11 3 4 13 15 15 17 23 28 33 29 29 30 29 26 24 21 17 14 12 12 10 8 7 7 7 6 8 10 12 13 14 16 17 18 20 22 21 22 23 23 21
7 7 5 9 7 15 15 14 15 18 24 29 29 29 29 28 27 24 21 16 14 13 12 10 8 5 5 5 6 7 9 11 13 13 12 14 15 17 18 20 22 23 22 22
11 8 5 5 10 15 15 18 18 21 24 27 28 31 30 31 28 23 20 17 15 14 12 11 8 6 5 4 4 5 7 9 11 11 12 13 14 15 16 17 19 20 20 20
14 7 5 8 14 18 20 19 19 23 25 28 32 30 30 25 22 22 18 16 15 14 12 11 9 5 4 2 3 4 5 6 9 12 13 14 15 15 16 17 18 19 20 21
14 6 8 12 18 21 22 21 21 25 28 30 29 29 25 24 22 20 19 17 15 13 12 10 7 5 3 1 1 4 7 9 10 12 14 15 15 17 17 18 19 19 18 19
7 7 4 7 17 22 22 22 21 27 28 30 28 24 26 24 22 21 20 19 17 14 12 11 9 7 4 2 3 5 8 10 11 12 14 15 16 17 17 18 18 17 17 18
5 5 4 7 14 20 22 22 22 24 26 26 24 24 23 20 18 19 20 18 16 15 13 11 9 7 4 3 4 6 8 10 12 13 15 15 16 17 17 17 16 17 18 19
5 4 3 6 9 16 20 21 19 21 23 22 23 23 22 20 19 19 19 16 13 13 12 11 10 9 6 4 5 7 10 11 13 14 16 17 18 18 18 17 18 19 19 18
4 6 7 8 10 15 17 18 17 21 23 23 21 20 21 19 19 19 20 19 16 14 13 11 10 9 6 6 6 9 11 13 14 15 17 17 17 17 18 19 19 20 20 21
7 8 9 9 10 15 17 17 16 17 20 22 21 19 20 21 21 20 15 13 14 12 11 9 8 7 5 6 8 11 12 14 15 16 16 16 16 17 18 19 20 21 22 22
6 5 8 10 11 15 17 18 18 18 18 19 21 18 19 19 20 21 20 17 13 11 9 8 7 6 6 8 10 11 13 14 15 14 15 15 16 17 18 19 20 21 22 23
6 6 7 8 11 14 16 18 17 16 14 17 17 16 18 19 19 17 14 13 12 10 9 8 7 8 8 9 11 12 13 13 13 14 14 15 16 17 18 18 19 20 21 22
6 6 7 8 10 12 14 16 17 16 17 18 16 16 16 16 15 18 15 12 12 10 9 8 8 8 8 10 11 12 12 13 13 13 13 15 16 17 17 18 19 19 21 23
6 6 7 8 8 10 13 15 17 18 20 21 19 19 18 17 17 15 13 12 11 10 9 9 8 8 9 11 12 12 12 12 12 12 14 15 15 15 16 17 18 19 21 22
8 8 9 10 11 11 12 13 15 18 19 18 19 19 18 18 17 13 12 13 11 9 9 8 8 9 11 13 13 13 12 12 13 14 14 14 14 15 16 17 19 20 21 22

GFSNGP_850_spd_132.txt.gz
Wind_Speed
2 1 1 4 5 7 9 17 9 20 12 15 9 12 23 21 14 10 6 2 2 5 8 11 13 15 16 18 19 22 25 27 28 26 27 29 32 35 36 39 42 42 42 43
5 4 5 7 3 10 16 14 15 13 23 12 10 10 19 24 18 13 9 5 2 4 7 10 13 15 17 17 19 21 23 25 25 26 28 30 30 32 34 37 40 40 43 43
5 3 5 8 8 12 4 6 6 8 10 4 3 7 17 22 17 14 11 7 5 5 6 9 11 13 15 16 17 19 21 23 24 25 27 29 30 33 35 37 38 40 40 40
2 1 5 6 4 5 8 7 9 10 3 2 6 11 16 18 19 15 12 9 8 7 7 8 8 10 12 13 16 19 22 23 23 24 26 26 29 32 34 36 37 38 40 39
2 2 7 6 3 5 5 6 4 4 7 9 16 15 6 14 15 14 12 11 10 9 8 7 6 8 9 12 15 18 22 24 23 24 25 27 29 31 33 34 36 37 36 38
3 3 5 6 3 7 5 5 5 10 12 16 15 5 4 21 18 16 14 13 11 10 8 6 7 7 6 10 14 19 21 21 22 23 24 26 28 30 32 33 34 34 36 37
3 5 6 7 7 8 5 6 8 16 19 22 6 5 11 24 20 16 15 14 13 10 8 6 6 5 6 11 16 18 17 17 18 21 23 24 26 27 29 31 32 33 34 35
4 5 8 9 7 6 4 1 7 14 18 24 12 10 22 26 24 21 19 17 14 11 9 7 7 5 6 11 15 13 13 15 18 20 22 23 24 26 29 30 31 33 33 34
9 7 1 22 5 14 6 4 8 14 18 22 20 19 28 28 25 22 20 18 15 11 9 8 6 5 5 11 11 11 11 15 17 18 21 23 26 28 30 32 33 34 35 35
2 5 7 14 18 13 11 10 9 13 17 22 24 24 30 29 27 25 22 19 16 13 10 8 7 6 6 9 7 8 11 14 15 17 20 22 24 26 28 31 31 32 33 33
4 6 8 19 21 20 17 12 11 14 18 22 25 29 31 31 29 27 23 20 15 13 11 10 8 7 7 7 6 6 9 12 15 17 19 21 24 25 26 26 26 27 28 27
7 6 6 1 3 16 18 16 14 18 21 23 26 29 31 31 29 27 25 22 18 15 13 11 9 8 7 6 5 5 8 11 13 15 17 19 20 22 23 22 21 21 21 22
4 5 9 2 2 5 11 12 14 17 20 24 28 29 31 31 29 27 24 21 19 17 14 12 11 9 8 6 5 6 8 11 12 14 15 17 19 20 21 20 19 19 18 18
10 6 5 9 4 7 10 11 12 15 18 22 28 29 30 30 29 27 25 21 19 17 16 14 12 9 8 6 5 6 8 10 12 14 14 15 17 17 17 18 19 20 20 19
10 10 7 5 8 9 12 13 13 15 18 23 27 29 30 31 30 27 24 21 19 18 17 15 12 9 7 6 3 5 7 9 11 13 13 13 14 14 15 16 18 18 17 17
12 8 5 5 6 9 12 14 14 16 18 23 28 29 30 28 27 25 24 20 20 20 18 15 12 8 7 6 3 3 6 8 10 11 12 12 13 14 15 17 17 17 18 19
11 5 7 7 9 12 13 14 15 16 19 22 26 30 30 25 25 25 22 18 16 15 14 14 12 10 7 4 3 3 5 7 8 10 11 12 13 14 15 16 17 17 18 20
5 2 3 3 8 12 14 15 15 16 19 24 26 27 25 26 25 25 22 20 19 17 16 15 12 9 7 4 1 1 4 6 8 9 11 12 13 14 15 16 16 17 18 19
4 2 2 3 7 10 15 15 16 16 19 22 25 25 24 23 22 21 20 19 19 18 18 16 13 10 7 3 1 1 3 5 8 10 12 13 14 14 15 16 17 18 19 19
5 3 2 5 5 10 13 15 14 15 17 21 24 25 24 23 20 18 18 18 16 15 15 14 12 9 6 3 2 2 4 7 9 11 12 13 14 14 15 16 17 18 19 20
3 4 4 4 4 5 8 10 13 14 17 21 22 24 23 21 19 17 19 19 18 17 15 14 12 10 7 3 3 4 6 8 10 12 13 13 13 14 15 17 18 19 20 20
6 7 5 5 4 5 8 10 10 11 17 20 20 22 22 19 19 18 17 17 18 17 16 14 11 9 7 4 4 6 8 9 11 13 13 13 14 15 16 17 18 19 20 20
6 4 5 5 4 7 10 11 11 11 15 18 20 19 21 18 18 21 22 20 16 14 14 12 10 8 6 5 6 8 10 11 12 12 12 13 14 15 16 18 19 19 20 21
3 4 5 4 6 8 11 12 12 13 13 14 16 18 19 18 19 19 16 15 15 14 12 10 8 7 6 5 7 9 11 12 12 12 13 14 14 16 17 17 18 19 20 21
4 4 4 5 6 8 9 11 13 14 14 15 17 17 14 15 16 18 18 15 13 13 11 9 8 6 6 6 8 10 11 11 12 12 13 14 15 16 16 17 18 19 20 21
5 5 5 5 5 6 8 10 14 15 15 17 18 16 15 15 15 16 16 14 14 12 10 8 7 6 6 7 9 11 11 11 11 12 13 14 15 15 16 16 17 18 19 21
5 4 4 5 6 6 7 9 11 13 15 16 19 18 16 17 17 16 15 13 13 11 9 8 7 6 7 9 10 11 11 11 12 12 13 14 15 15 15 16 17 18 20 21

GFSNGP_850_spd_135.txt.gz
Wind_Speed
3 2 3 1 5 8 10 14 11 26 18 19 11 11 17 19 17 15 12 9 7 4 4 6 7 9 10 13 15 17 19 21 24 24 23 23 24 25 28 32 35 38 39 41
2 2 1 7 8 10 13 17 12 16 24 18 19 7 8 17 20 16 14 11 8 6 6 6 7 8 10 13 14 15 17 20 21 22 22 23 24 26 29 31 33 34 37 38
5 0 1 10 11 16 8 10 9 10 14 3 4 7 10 16 19 19 16 14 11 8 7 7 7 9 10 13 13 14 17 19 20 21 22 25 26 27 29 32 32 35 37 39
1 2 5 3 5 7 11 11 13 16 14 3 3 2 8 14 21 19 17 15 13 11 9 7 7 8 10 12 13 15 18 20 20 21 23 25 26 30 31 32 34 35 38 37
3 5 8 10 4 5 7 7 7 17 4 4 6 6 3 14 17 18 17 15 13 12 11 8 7 7 8 10 12 14 18 20 21 21 22 24 26 28 30 31 32 34 34 36
4 4 6 2 3 6 5 9 6 7 10 11 13 3 3 22 20 19 17 15 15 14 12 10 8 8 6 9 12 15 17 19 19 20 22 23 25 27 28 30 32 33 34 35
8 7 7 9 8 8 2 5 4 9 12 16 6 4 2 24 22 19 18 18 16 14 12 10 9 8 7 9 12 15 15 17 17 19 22 23 23 25 27 29 29 31 32 33
5 5 10 10 9 7 4 5 6 11 14 17 13 8 12 24 24 24 23 21 17 15 13 12 10 7 8 9 12 12 11 13 17 19 20 20 22 26 27 28 30 31 32 33
10 7 2 23 9 22 6 6 8 11 12 14 17 16 18 26 26 25 23 21 18 15 14 12 10 9 7 11 12 9 9 14 17 17 18 20 23 26 28 29 30 30 30 30
2 6 11 14 24 14 15 13 10 10 12 15 18 19 23 28 28 26 24 22 20 17 14 13 11 9 8 10 10 8 9 12 13 14 17 19 22 24 26 27 28 28 26 28
5 7 6 18 21 25 24 18 15 13 13 15 19 22 25 31 29 27 25 23 20 18 16 14 12 11 9 9 8 6 8 11 12 15 17 19 21 22 23 23 22 21 25 23
7 10 6 5 5 7 20 20 16 15 16 18 20 23 27 30 29 28 27 24 22 19 17 16 14 12 10 9 8 6 7 9 11 12 15 17 18 19 20 20 19 19 20 21
10 7 9 5 3 3 8 12 13 14 16 17 21 23 27 30 29 28 27 25 22 20 18 17 15 13 11 10 8 7 7 9 10 11 12 14 15 16 17 17 17 18 18 17
13 8 5 8 4 5 7 9 10 12 14 15 19 24 26 28 28 28 28 25 22 20 19 18 16 14 12 11 9 7 7 8 8 9 10 12 13 15 15 16 16 17 17 16
12 11 8 5 5 7 8 9 11 12 14 16 19 23 27 29 30 28 27 25 23 21 19 17 16 14 12 11 8 6 6 7 7 8 8 10 12 12 13 14 14 14 13 14
12 9 7 7 7 8 9 11 12 13 14 16 19 23 26 27 29 27 26 25 24 24 21 18 16 13 12 10 7 5 4 5 6 6 7 8 9 10 11 12 13 13 15 17
13 8 10 10 9 10 11 10 11 12 13 16 19 24 28 31 27 26 26 23 20 18 19 17 16 13 11 9 7 5 3 3 4 5 6 7 8 9 10 11 11 13 15 16
6 4 5 5 6 9 9 10 11 12 14 15 18 22 26 29 29 27 27 24 21 20 19 18 16 14 12 9 7 5 2 1 2 4 6 7 7 8 9 10 11 12 13 15
6 3 4 3 3 5 6 9 11 12 13 13 16 20 22 25 25 26 26 23 22 23 22 21 18 15 12 9 7 4 2 1 2 4 6 7 8 8 9 10 11 12 13 14
6 4 2 3 3 5 6 8 8 10 10 12 16 20 24 25 23 23 22 20 19 19 20 20 16 14 11 9 7 4 3 3 4 5 6 7 8 8 9 10 11 12 13 14
5 3 3 5 4 6 6 6 8 9 11 13 16 22 25 23 21 21 20 20 20 19 18 17 16 14 11 8 6 5 4 4 5 6 7 7 7 8 9 10 11 12 13 14
7 8 6 5 5 7 7 7 8 8 11 14 18 22 24 25 21 19 17 17 19 20 19 18 16 14 11 8 6 5 5 5 6 7 7 7 7 8 9 10 11 11 13 14
9 8 6 7 6 6 8 8 8 7 10 15 18 20 24 24 20 19 19 19 18 18 18 17 15 13 11 8 6 5 5 6 6 6 7 7 7 8 9 10 11 12 13 15
7 7 8 8 8 9 10 10 10 8 10 12 14 17 19 22 20 18 16 16 17 17 17 15 14 13 10 7 6 5 6 6 6 7 7 7 7 8 9 10 11 13 14 15
6 7 7 7 8 9 9 10 11 12 12 13 15 15 16 17 15 16 17 17 16 16 17 15 13 11 9 7 6 6 7 7 7 7 7 7 8 9 9 10 11 13 15 16
7 7 7 8 7 8 8 10 12 13 14 15 15 16 17 16 15 16 18 17 17 17 15 13 12 10 9 7 6 7 7 7 7 7 7 8 8 8 9 10 12 14 15 16
8 7 7 7 7 7 8 9 11 13 13 13 15 18 18 17 17 17 18 17 17 17 14 13 11 9 8 7 7 8 8 8 8 8 8 8 8 8 9 11 13 14 15 16

GFSNGP_850_spd_141.txt.gz
Wind_Speed
7 9 10 12 11 13 13 17 16 17 20 22 21 19 21 15 10 9 15 15 14 13 10 7 4 3 1 2 4 6 8 9 11 13 14 15 17 18 17 22 23 23 25 25
4 10 13 14 16 15 15 20 18 20 26 21 26 8 8 10 10 11 16 17 16 14 11 8 6 4 2 1 3 4 6 9 10 12 13 14 15 16 19 20 23 26 27 27
8 14 10 12 13 18 20 21 18 19 21 17 13 14 12 10 8 11 16 17 17 15 12 10 8 6 4 2 1 3 6 8 8 9 12 14 14 15 17 20 22 24 26 27
5 5 11 13 4 9 15 17 15 16 17 17 10 4 2 6 10 12 16 17 17 15 13 11 9 8 6 4 2 3 4 6 8 9 10 13 13 15 17 19 22 25 27 28
7 11 13 17 13 10 9 13 11 15 16 14 3 3 10 6 7 11 15 17 19 16 14 12 10 9 7 6 5 4 4 5 6 7 9 11 13 14 16 18 20 24 27 28
9 11 14 15 5 6 3 11 8 3 6 4 3 6 2 8 10 14 20 22 23 19 14 17 14 12 13 9 8 6 6 5 5 6 7 9 12 13 14 15 16 18 21 27
13 13 14 13 13 9 6 3 5 2 2 5 6 2 6 10 13 15 20 22 20 22 21 18 16 13 12 10 9 8 7 6 5 6 8 8 9 10 12 13 14 17 17 20
13 16 19 10 14 8 4 3 5 6 7 11 10 7 9 14 18 15 21 22 22 23 19 18 17 15 13 12 10 9 7 6 6 6 7 9 10 11 11 11 14 15 15 16
10 10 6 7 11 12 4 8 7 8 7 11 14 13 12 14 15 17 20 22 23 22 21 19 18 16 15 13 11 10 8 7 6 6 7 9 9 11 10 12 11 11 12 14
13 12 10 11 13 14 12 12 11 10 10 12 12 15 15 15 17 19 20 22 24 24 23 21 19 18 16 14 13 11 9 7 6 6 7 9 9 9 9 9 10 11 12 12
15 13 16 17 15 15 16 14 12 11 11 13 12 14 16 17 20 20 21 21 22 22 22 22 20 19 17 15 14 12 10 8 6 6 6 7 8 9 8 11 10 8 9 10
9 10 13 14 6 5 8 12 14 14 13 13 14 14 16 17 20 21 23 22 22 21 20 20 20 19 18 17 15 12 9 7 5 4 5 4 4 5 9 10 11 11 8 7
20 22 20 10 7 6 7 8 9 11 12 12 13 13 16 16 19 21 21 22 22 22 20 20 19 19 18 17 15 12 8 8 7 5 4 4 4 2 8 8 12 11 10 12
21 15 13 12 9 10 8 7 8 8 9 10 11 13 15 16 18 21 22 22 21 21 20 20 20 19 18 17 15 15 13 13 8 7 5 4 3 2 3 2 3 9 11 12
16 15 12 6 9 9 8 8 8 8 8 9 10 13 15 18 19 21 20 21 22 21 21 21 20 21 20 18 18 17 13 12 9 7 6 5 3 2 2 2 2 3 5 8
15 14 12 11 10 10 9 9 9 8 9 9 11 12 15 16 18 19 21 22 24 25 23 23 23 22 20 19 18 17 15 13 10 7 6 3 3 2 1 1 2 3 5 7
13 13 12 12 11 10 9 8 7 8 9 10 11 11 14 16 18 21 22 23 23 23 25 27 25 23 22 21 18 15 12 12 10 7 5 4 3 2 1 1 1 2 5 8
11 6 9 8 9 9 8 6 6 6 8 10 13 15 18 21 20 22 24 24 22 24 20 21 23 23 22 20 16 12 11 10 9 7 5 4 4 3 3 2 2 2 2 10
9 7 6 5 4 5 6 6 6 8 11 11 10 12 15 18 19 21 23 25 24 22 20 21 21 21 21 19 15 12 10 9 8 6 6 6 5 4 3 2 3 4 4 4
9 8 6 6 5 7 9 9 7 8 8 8 10 11 12 14 18 20 21 24 23 18 21 22 22 21 20 18 16 11 10 9 8 7 5 5 4 4 5 6 6 4 4 4
10 8 6 4 5 4 5 6 6 7 7 8 8 10 13 13 16 17 21 18 19 21 18 20 22 20 19 18 15 11 11 10 9 7 7 5 7 6 5 5 5 5 5 5
7 6 6 4 4 5 6 7 7 6 6 7 9 10 12 12 15 17 17 15 19 17 16 19 20 19 18 17 14 12 11 10 8 8 7 6 6 6 6 7 6 6 6 7
6 6 5 4 5 5 7 7 7 6 5 7 8 10 11 13 16 17 16 19 18 17 17 20 21 20 19 15 14 13 11 10 8 7 7 7 8 8 8 8 8 9 9 9
5 6 7 7 5 5 7 8 7 6 6 7 8 10 13 14 15 15 15 18 15 16 17 18 21 18 18 15 13 12 11 9 10 9 9 8 9 9 10 11 10 10 10 10
5 6 7 7 6 6 7 8 7 6 7 8 10 12 11 11 11 16 16 17 15 18 17 19 16 19 17 14 13 12 10 9 9 9 8 9 10 10 10 10 10 10 11 11
5 5 6 7 6 7 7 8 7 8 9 9 10 11 13 14 15 15 15 17 18 18 16 18 20 19 17 15 13 11 10 9 8 9 9 10 11 11 10 10 10 11 11 12
6 7 6 6 6 7 7 8 9 9 11 10 10 12 13 13 14 14 17 17 18 17 17 18 19 19 17 14 12 11 9 8 9 10 11 11 10 11 10 10 11 11 11 12

GFSNGP_850_spd_144.txt.gz
Wind_Speed
5 10 3 12 13 15 15 12 13 9 12 14 9 12 17 7 6 2 13 19 16 12 11 10 8 7 6 3 1 2 4 6 8 9 10 11 13 15 15 18 20 21 21 21
4 6 8 10 15 15 15 13 16 13 19 15 18 24 3 3 3 3 6 18 15 13 12 11 9 9 7 4 2 1 3 5 6 8 9 10 12 14 16 18 20 20 21 20
7 9 10 6 15 13 14 16 13 15 17 13 12 12 3 3 2 6 8 16 16 15 14 14 12 10 8 5 3 2 2 3 5 8 8 9 11 13 16 19 21 23 25 24
4 6 9 8 11 17 15 16 15 16 15 13 10 4 4 2 4 6 11 15 16 16 16 14 12 11 9 5 5 3 1 3 5 6 7 8 10 13 16 18 22 25 26 27
5 9 11 15 3 10 9 13 11 12 12 13 7 3 4 2 3 6 12 16 19 18 19 14 15 13 12 9 7 6 4 2 3 4 6 8 10 11 13 15 18 21 24 25
6 8 9 9 12 2 5 8 9 14 7 5 4 3 3 6 6 10 15 20 23 22 18 20 18 18 16 15 13 9 7 5 4 4 6 7 9 12 13 14 16 17 19 21
9 7 8 11 4 9 7 1 8 2 0 1 2 1 8 9 11 10 16 21 22 24 23 23 23 16 17 13 10 9 8 6 5 5 5 5 6 9 11 13 15 14 16 17
8 9 13 11 10 10 3 5 6 3 2 7 9 10 11 13 13 12 18 22 22 25 24 20 20 15 16 13 11 10 8 7 6 5 5 7 9 11 10 9 10 11 12 13
7 7 8 10 8 15 3 1 1 6 4 10 11 12 13 15 16 14 16 22 23 24 23 20 19 18 16 14 13 12 10 9 7 6 6 7 7 8 7 8 7 7 8 11
9 10 9 4 10 4 6 8 8 7 6 11 14 15 15 15 15 15 16 21 24 25 24 22 21 19 17 16 15 13 12 10 9 8 8 6 4 4 5 7 6 6 7 7
10 7 11 13 10 12 8 8 6 9 9 10 14 15 16 17 16 17 17 19 21 23 24 23 22 21 19 18 16 15 13 10 9 8 6 6 3 7 9 8 7 6 7 9
6 7 11 9 11 5 4 6 8 13 12 11 13 14 14 14 16 18 19 19 19 19 20 22 22 22 20 20 18 16 14 12 9 7 4 4 5 5 7 8 8 8 7 8
13 12 14 5 13 7 10 11 10 11 11 12 12 13 13 13 16 19 19 20 21 20 19 20 20 20 21 21 19 16 12 12 12 10 9 8 1 4 4 5 8 10 8 9
13 11 14 13 10 9 11 9 9 8 8 10 11 12 14 15 15 19 21 21 20 21 21 20 20 19 19 20 18 16 14 14 11 12 12 10 10 10 3 3 6 8 10 10
13 14 16 14 10 14 10 10 9 7 8 9 9 12 13 16 17 20 20 20 22 22 22 21 21 21 20 20 20 22 21 17 14 14 12 11 9 7 5 4 4 2 6 8
24 24 15 14 11 11 11 10 9 8 9 9 9 11 12 13 15 19 20 21 23 24 24 24 23 24 22 22 22 22 18 18 16 13 11 8 7 5 4 3 1 2 8 7
15 13 15 13 14 12 11 10 9 8 9 10 10 11 11 13 16 18 18 20 23 23 23 26 26 25 24 24 21 20 20 16 13 9 9 8 7 7 6 6 7 5 8 7
12 11 12 11 11 11 11 10 10 8 9 12 14 13 14 17 18 20 23 25 26 25 25 28 27 23 23 22 18 17 15 16 14 11 11 9 8 8 7 7 5 4 7 8
10 8 9 8 6 10 12 11 11 12 12 12 10 11 13 16 19 21 23 23 23 24 24 25 21 23 23 21 18 14 13 12 14 12 10 9 9 7 6 5 6 6 5 5
11 11 11 11 10 12 12 11 11 10 9 9 9 11 13 15 16 17 17 18 19 22 24 22 19 21 22 22 17 14 13 12 11 11 10 9 7 6 8 9 9 7 5 6
14 12 7 7 7 6 8 8 7 7 6 7 8 10 11 13 14 14 16 17 17 18 19 19 19 20 20 22 20 14 13 12 13 12 10 9 9 10 9 8 7 7 7 8
10 8 7 7 6 6 6 7 6 5 7 9 9 10 12 11 13 14 12 16 20 20 18 16 20 20 19 18 17 14 13 13 12 11 9 8 8 8 9 10 9 9 9 8
9 8 7 6 5 5 7 7 6 6 7 9 9 10 9 9 13 16 18 17 16 20 17 19 20 18 16 16 18 14 13 14 14 13 12 11 11 12 12 12 11 11 10 11
8 9 8 6 4 3 7 8 7 7 6 7 8 9 10 12 14 12 13 15 15 18 18 19 19 18 16 16 15 16 17 15 15 13 13 12 12 12 13 13 12 13 12 11
8 8 7 7 6 5 6 9 8 8 8 7 9 13 11 11 13 15 15 12 15 18 17 18 18 18 18 18 17 17 16 14 13 12 10 10 12 11 11 12 11 11 12 10
5 5 7 8 6 8 8 10 7 7 10 9 11 14 12 10 12 13 11 13 18 18 17 17 17 18 20 18 17 15 14 12 10 11 10 10 10 11 11 12 11 10 11 12
7 7 7 8 7 7 8 11 11 9 11 10 10 13 14 14 14 12 13 15 20 19 17 16 18 21 20 18 15 14 12 11 11 10 10 11 12 12 12 11 11 11 11 11

GFSNGP_850_spd_147.txt.gz
Wind_Speed
2 5 2 4 5 5 5 5 6 6 10 5 5 4 8 13 19 24 25 25 23 20 14 11 13 13 12 9 7 5 2 2 3 5 7 8 10 13 15 17 18 17 16 18
3 5 5 3 10 7 6 5 5 5 9 6 15 17 8 18 24 26 26 24 21 19 16 12 12 14 13 10 7 5 3 1 2 5 6 8 9 12 14 16 19 19 17 16
4 5 4 4 7 5 4 7 5 8 9 4 5 6 9 13 19 22 22 27 25 21 16 12 13 13 12 10 9 6 4 3 3 3 4 7 9 11 13 17 18 20 21 19
2 4 9 9 8 16 20 18 14 13 10 6 4 10 11 10 13 15 16 25 24 21 17 14 14 13 12 11 11 8 5 3 3 3 4 7 8 9 12 14 17 20 21 22
2 5 6 9 7 10 9 13 13 11 5 12 19 15 7 5 6 8 14 18 21 20 16 18 17 16 13 12 11 9 8 6 4 4 5 7 7 8 10 12 14 15 18 20
4 5 7 5 14 19 6 11 8 9 4 11 11 3 3 7 6 7 10 16 19 18 19 19 18 18 15 15 15 13 9 7 6 6 6 7 8 10 11 10 13 13 14 16
7 3 6 6 1 8 5 7 9 11 14 16 4 5 10 10 9 8 10 15 18 20 21 21 23 22 21 20 17 14 11 9 7 7 6 5 6 8 9 9 9 11 12 14
5 5 7 9 5 9 8 12 15 12 12 10 11 11 10 9 9 10 13 17 21 22 22 22 23 21 21 21 17 14 12 10 9 7 8 9 9 9 8 7 4 5 7 11
7 6 6 2 3 8 14 14 10 11 10 10 13 12 12 12 13 13 14 18 22 22 22 23 23 22 20 20 17 15 14 13 11 10 10 9 9 9 9 8 5 2 5 9
4 5 4 7 3 7 6 3 4 8 12 11 9 12 13 15 16 17 17 20 22 24 25 25 24 21 19 18 17 15 15 13 12 13 11 8 8 8 7 4 4 3 4 7
2 7 13 7 4 3 9 7 2 8 7 7 11 13 14 16 18 18 17 18 22 25 27 26 24 22 21 19 18 17 16 15 14 13 10 8 7 8 6 4 4 4 6 7
5 8 7 5 8 8 10 10 7 7 11 12 11 13 13 14 17 19 19 18 19 22 25 26 25 23 22 21 20 19 18 17 15 12 11 10 8 8 7 6 5 4 5 6
5 8 11 11 7 7 7 7 7 9 9 16 13 13 14 11 15 19 19 19 18 18 20 23 25 24 23 22 22 20 19 17 15 14 13 11 8 5 3 4 4 5 5 6
20 13 8 8 7 9 10 10 9 9 9 7 11 14 15 12 10 18 21 19 15 15 16 18 20 22 21 22 22 20 17 17 15 12 11 10 9 7 5 2 1 2 4 6
13 11 12 10 9 10 12 11 9 8 9 10 11 13 16 15 14 16 20 20 16 15 17 17 17 18 17 20 21 20 18 17 16 17 18 17 15 11 8 6 4 3 3 5
24 23 16 14 13 10 12 10 10 9 10 13 13 11 12 13 14 17 21 21 21 21 22 21 19 16 15 18 22 22 20 21 20 19 17 16 14 13 11 9 8 6 4 4
18 20 22 22 19 14 12 12 11 11 10 15 14 14 14 13 15 18 22 20 19 18 22 23 22 18 17 19 22 24 24 22 20 17 16 15 13 12 11 11 10 8 8 6
16 26 18 16 15 13 13 14 14 13 12 13 13 12 13 16 18 21 22 21 21 22 22 23 23 23 20 20 21 21 22 21 18 16 16 14 13 13 12 11 11 10 8 6
8 16 17 14 12 14 17 18 17 14 12 12 12 11 12 15 17 20 21 21 22 23 23 23 25 25 22 20 18 18 18 18 18 16 14 14 15 12 11 11 10 9 9 9
20 18 17 16 12 15 16 12 11 10 10 11 12 11 13 14 16 17 17 18 20 21 23 23 22 21 19 17 19 17 14 16 21 17 13 13 13 12 10 9 8 8 9 10
18 15 12 9 10 10 10 10 9 9 10 11 11 12 13 14 14 15 16 18 18 15 14 17 18 19 18 20 22 17 14 14 17 15 13 13 12 10 9 9 10 11 11 11
9 8 9 9 9 9 9 9 8 8 9 10 10 10 10 11 12 12 11 13 13 13 15 16 17 18 19 23 22 18 15 15 14 11 10 11 12 12 12 12 11 11 11 12
9 9 9 8 8 8 9 8 8 9 9 10 9 9 10 11 13 16 16 14 12 12 14 14 16 18 18 23 24 19 16 15 15 13 12 12 11 12 12 12 12 13 13 13
10 9 7 7 5 8 10 10 9 9 8 9 8 9 9 11 14 14 12 10 11 12 15 15 18 18 17 20 23 18 16 15 15 15 14 13 14 14 15 15 15 14 14 14
10 9 9 9 7 5 9 11 11 10 8 9 9 10 8 10 9 11 10 9 11 14 16 17 17 17 17 18 19 18 17 16 15 14 13 14 13 15 14 13 14 16 15 13
11 10 10 9 8 7 8 10 10 10 10 10 12 14 11 12 11 10 9 9 13 17 16 17 18 17 18 18 18 18 17 16 14 13 12 14 13 12 12 13 12 12 12 11
8 7 11 11 9 8 8 10 10 7 10 8 12 16 14 13 11 10 10 12 17 18 15 15 17 19 19 20 19 17 15 14 13 13 12 11 11 13 13 12 12 11 10 9

GFSNGP_850_spd_150.txt.gz
Wind_Speed
9 15 17 4 4 8 6 6 8 7 10 8 9 10 16 15 19 27 30 35 38 35 31 26 21 17 15 15 13 9 7 5 3 2 2 2 6 8 11 12 13 13 13 15
4 7 6 5 12 4 1 2 3 6 8 7 14 11 15 20 23 30 31 33 34 33 29 25 20 16 17 16 13 10 8 5 4 3 2 3 5 8 9 12 13 13 12 13
7 15 2 5 7 5 4 5 6 7 8 6 7 8 11 21 29 28 27 27 30 31 29 23 18 17 17 16 13 11 8 7 7 5 4 5 5 6 8 10 12 14 15 13
3 4 8 10 6 7 10 10 9 11 4 6 6 5 8 18 25 24 25 25 26 27 25 21 17 15 16 16 14 12 9 8 8 6 6 6 6 5 7 8 10 13 15 15
3 5 5 7 5 7 8 21 11 9 7 5 15 14 5 11 17 18 19 18 18 20 23 21 16 16 16 16 16 14 11 10 8 8 7 8 7 6 5 6 9 10 11 13
3 4 6 5 7 11 5 13 8 14 7 11 14 3 4 16 14 14 14 16 20 22 20 18 16 16 17 17 17 15 12 10 9 9 8 8 7 6 6 6 8 9 9 10
8 4 6 6 8 6 9 7 11 15 17 23 6 6 13 18 15 13 12 14 20 20 19 17 16 17 18 16 16 13 12 11 11 10 10 9 8 7 5 3 4 7 8 8
5 6 8 9 3 7 7 3 12 16 23 25 14 15 17 15 11 11 12 17 19 19 19 19 18 17 17 15 14 12 11 11 11 11 12 12 11 10 8 4 2 3 5 6
7 6 6 5 4 6 10 16 12 19 18 17 17 17 15 11 11 12 13 15 18 19 20 21 20 19 17 16 17 16 15 14 13 14 13 12 12 11 10 8 4 1 2 5
3 4 5 12 11 14 13 13 11 10 10 10 9 12 13 15 16 17 18 18 19 23 24 23 23 22 19 18 19 18 17 17 17 16 15 15 13 11 10 8 6 3 1 3
2 3 2 4 13 13 15 13 11 10 11 14 15 15 14 17 19 20 19 19 21 23 24 24 23 24 22 21 20 20 19 19 19 18 14 13 13 12 10 8 6 4 3 2
4 8 7 9 13 13 15 15 14 16 16 20 17 14 17 18 18 19 20 20 21 23 24 24 25 24 23 22 21 21 21 22 21 18 16 13 11 13 11 8 7 5 4 2
6 6 8 8 15 17 18 15 14 15 16 16 18 19 16 14 14 15 17 19 19 17 18 22 25 25 23 22 22 22 22 22 21 19 17 17 16 12 10 8 7 5 4 3
8 8 13 15 17 18 17 18 17 15 16 16 18 19 15 13 12 13 16 15 13 13 13 16 21 24 23 23 23 23 23 21 21 19 18 17 15 12 9 7 7 5 4 2
21 17 17 17 18 20 19 17 15 14 12 13 17 15 17 15 13 11 10 12 11 12 12 13 15 18 21 22 23 24 22 22 20 18 17 16 14 13 11 9 8 6 4 1
31 30 22 12 16 22 22 20 16 16 14 14 14 14 13 12 11 11 10 12 16 15 13 12 12 11 15 18 21 23 23 20 19 18 18 17 15 14 13 12 11 8 6 5
13 14 17 22 21 23 26 23 19 15 12 12 12 12 12 14 15 14 15 15 16 14 10 10 10 13 13 13 18 23 24 20 21 18 19 18 17 16 15 15 12 10 8 8
23 24 17 19 21 25 24 21 18 14 13 13 14 12 12 14 15 16 17 19 19 18 16 12 14 15 16 13 15 19 20 20 21 20 19 19 18 17 16 14 13 12 11 10
15 13 10 6 16 26 23 19 15 11 12 13 13 13 12 11 12 13 17 20 21 19 18 18 19 19 18 15 15 17 19 20 22 21 20 18 18 16 15 15 14 13 13 11
14 11 13 19 17 17 18 16 14 12 11 11 12 12 12 10 11 13 17 18 16 14 15 17 20 21 21 18 18 19 17 19 21 20 19 17 16 15 15 14 13 12 11 11
20 20 18 18 16 15 14 13 10 9 9 10 10 10 9 10 12 14 17 16 15 15 14 16 19 21 21 19 18 16 17 18 19 19 17 15 15 15 14 12 11 11 12 12
16 13 13 13 14 14 12 11 9 9 9 11 10 10 11 13 14 15 14 11 13 15 15 16 17 17 17 18 17 17 17 15 16 15 15 13 13 13 12 11 12 11 11 12
9 10 11 11 9 9 9 8 9 9 9 9 10 10 10 9 11 14 14 12 12 12 12 13 14 14 16 18 18 17 16 14 13 13 12 11 11 11 12 12 12 12 12 12
9 8 8 7 8 8 9 9 10 9 9 9 8 8 8 10 11 11 10 7 10 10 10 12 13 14 17 20 21 19 16 14 13 13 12 12 10 11 12 12 13 14 13 13
7 6 5 5 5 8 9 10 10 9 9 8 7 7 8 7 6 9 9 9 10 10 12 13 12 14 16 18 21 20 17 14 13 13 12 11 11 12 12 14 15 15 15 16
10 8 7 6 4 3 6 9 9 9 8 8 8 10 9 9 10 8 8 8 8 10 13 14 15 16 16 17 18 19 16 14 13 12 12 12 13 13 14 13 14 14 14 13
8 8 10 9 7 6 6 6 7 7 7 4 7 10 8 7 7 7 7 8 9 11 13 13 14 15 15 15 15 15 14 13 13 13 13 13 13 12 12 11 12 12 11 11